Inquirer Daily News

Weather

Get conditions and forecasts for any City, State, ZIP code or Country:  
Northeast Philadelphia, PA
on Thursday, January 31, 2013

Thursday
Previous Day Next Day
Daily Summary
 ActualAverage (KTTN)Record (KTTN)
Temperature
Mean Temperature °F 32°F  
Max Temperature 62°F 40°F 64°F (1947)
Min Temperature 28°F 24°F -1°F (1920)
Degree Days
Heating Degree Days 19 33  
Month to date heating degree days 1050  
Since 1 July heating degree days 2946  
Cooling Degree Days 0 0  
Month to date cooling degree days 0  
Year to date cooling degree days 0  
Moisture
Dew Point 36°F   
Average Humidity 65    
Maximum Humidity 94    
Minimum Humidity 36    
Precipitation
Precipitation 0.93 in 0.10 in 0.85 in (2013)
Month to date precipitation 3.16  
Year to date precipitation 3.16  
Wind
Wind Speed 19 mph   
Max Wind Speed 31 mph   
Max Gust Speed 48 mph   
Visibility 8 miles   
Events Rain   

Key: T is trace of precipitation, MM is missing value
Source: NWS Daily Summary
Time(EST)TemperatureDew PointHumidity Pressure Visibility Wind DirectionWind SpeedGust SpeedPrecipitationEvents Conditions
12:04 AM 59.0°F 57.2°F 94% 29.35 in 3.0 miles Variable 6.9 mph - 0.06 in Rain Heavy Rain
12:54 AM 61.0°F 57.9°F 90% 29.28 in 6.0 miles South 13.8 mph 21.9 mph 0.16 in Rain Light Rain
1:54 AM 62.1°F 57.9°F 86% 29.18 in 9.0 miles South 18.4 mph 32.2 mph 0.05 in Rain Light Rain
2:54 AM 62.1°F 57.9°F 86% 29.12 in 5.0 miles South 17.3 mph 34.5 mph 0.06 in Rain Rain
3:20 AM 60.8°F 59.0°F 94% 29.17 in 1.8 miles WSW 25.3 mph 41.4 mph 0.12 in Rain Heavy Rain
3:23 AM 60.8°F 59.0°F 94% 29.20 in 1.2 miles West 31.1 mph 41.4 mph 0.16 in Rain Heavy Rain
3:29 AM 60.8°F 59.0°F 94% 29.18 in 1.0 miles WSW 21.9 mph 40.3 mph 0.37 in Rain Heavy Rain
3:36 AM 60.8°F 57.2°F 88% 29.18 in 3.0 miles WSW 18.4 mph 32.2 mph 0.41 in Rain Heavy Rain
3:47 AM 60.8°F 57.2°F 88% 29.19 in 7.0 miles WSW 13.8 mph 25.3 mph 0.43 in Rain Rain
3:54 AM 60.1°F 55.9°F 86% 29.18 in 5.0 miles WSW 21.9 mph 32.2 mph 0.46 in Rain Heavy Rain
4:54 AM 57.9°F 55.0°F 90% 29.15 in 10.0 miles SSW 11.5 mph 19.6 mph 0.10 in Rain Light Rain
5:47 AM 55.4°F 51.8°F 88% 29.18 in 2.5 miles West 25.3 mph 36.8 mph 0.00 in Rain Rain
5:54 AM 53.1°F 50.0°F 89% 29.19 in 2.0 miles West 16.1 mph 36.8 mph 0.10 in Rain Rain
6:01 AM 53.6°F 48.2°F 82% 29.20 in 9.0 miles West 25.3 mph 33.4 mph N/A Rain Light Rain
6:11 AM 51.8°F 46.4°F 82% 29.22 in 10.0 miles West 27.6 mph 41.4 mph 0.00 in Rain Light Rain
6:54 AM 48.9°F 32.0°F 52% 29.28 in 10.0 miles West 21.9 mph 41.4 mph 0.00 in   Mostly Cloudy
7:54 AM 46.0°F 30.9°F 56% 29.36 in 10.0 miles WNW 25.3 mph 36.8 mph N/A   Overcast
8:54 AM 43.0°F 25.0°F 49% 29.44 in 10.0 miles West 25.3 mph 40.3 mph N/A   Mostly Cloudy
9:54 AM 42.1°F 25.0°F 51% 29.48 in 10.0 miles West 19.6 mph 33.4 mph N/A   Mostly Cloudy
10:54 AM 43.0°F 24.1°F 47% 29.52 in 10.0 miles West 31.1 mph 36.8 mph N/A   Mostly Cloudy
11:54 AM 42.1°F 24.1°F 49% 29.53 in 10.0 miles West 20.7 mph 31.1 mph N/A   Overcast
12:54 PM 45.0°F 21.9°F 40% 29.53 in 10.0 miles West 28.8 mph 38.0 mph N/A   Mostly Cloudy
1:54 PM 42.1°F 19.0°F 40% 29.56 in 10.0 miles WNW 23.0 mph 35.7 mph N/A   Clear
2:54 PM 43.0°F 19.9°F 40% 29.60 in 10.0 miles West 19.6 mph 33.4 mph N/A   Scattered Clouds
3:54 PM 39.9°F 15.1°F 36% 29.65 in 10.0 miles West 31.1 mph 48.3 mph N/A   Partly Cloudy
4:54 PM 37.0°F 12.0°F 36% 29.71 in 10.0 miles West 29.9 mph 42.6 mph N/A   Partly Cloudy
5:54 PM 35.1°F 14.0°F 42% 29.74 in 10.0 miles West 15.0 mph 32.2 mph N/A   Partly Cloudy
6:54 PM 35.1°F 15.1°F 44% 29.78 in 10.0 miles WSW 18.4 mph 27.6 mph N/A   Mostly Cloudy
7:54 PM 34.0°F 14.0°F 44% 29.80 in 10.0 miles West 23.0 mph 35.7 mph 0.00 in   Mostly Cloudy
8:54 PM 32.0°F 12.9°F 45% 29.83 in 10.0 miles West 19.6 mph 32.2 mph N/A   Mostly Cloudy
10:54 PM 30.0°F 9.0°F 41% 29.86 in 10.0 miles West 17.3 mph 26.5 mph N/A   Clear
11:54 PM 28.9°F 9.0°F 43% 29.88 in 10.0 miles WSW 10.4 mph - N/A   Clear
Astronomy
Sunrise:07:09 AM (EST) Moon Rise:10:17 PM (EST)
Sunset:05:18 PM (EST) Moon Set:09:07 AM (EST)
Moon Phase
Jan. 31 Feb. 03 Feb. 10 Feb. 17 Feb. 25

Copyright © 2014 The Weather Underground, Inc.